Vorticity
5 6 3 4 6 9 9 9 8 7 6 6 6 8 12 12 9 5 5 7 7 7 6 5 4 4 5 6 6 5 4 4 3 2 2 1 1 1 2 2 2 1 0 2 5 10 15 18 20 21 21 19 18 15 13 11 10 11 11 11 11 10 9 8 7 7 7 7 6 6 6 6 6 5 5 5 5 5 5 5 5 5 5 5 6 6 6 6 6 6 6 6 6 6 6 6 6 5 5 4 4 4 3
5 3 0 5 8 9 9 8 7 6 5 6 7 9 11 12 9 5 5 6 7 6 5 5 4 4 5 6 5 5 4 4 3 2 1 1 1 2 2 2 1 1 1 3 7 12 17 20 22 22 21 19 17 14 11 10 11 11 12 11 9 8 8 7 7 7 6 6 6 6 5 5 5 5 5 5 5 5 5 5 6 6 6 6 6 6 6 6 6 6 6 6 6 6 5 5 5 4 4 3 3 3 2
4 2 2 8 9 8 7 6 5 4 4 7 8 9 10 11 8 5 5 7 7 6 5 5 5 5 6 6 5 4 4 4 3 2 1 1 1 2 2 1 1 0 1 5 10 15 20 22 23 22 21 18 15 12 9 10 11 11 11 9 8 7 7 7 6 6 6 5 5 5 5 5 5 5 5 5 5 6 6 6 6 6 6 6 6 6 6 6 6 6 6 5 5 5 4 4 3 3 3 2 2 2 2
5 3 5 9 8 6 5 4 4 4 5 10 10 10 11 11 8 5 6 7 7 6 5 5 5 6 7 6 5 4 4 4 3 2 1 1 1 1 1 1 0 1 2 7 13 19 23 24 23 21 19 16 13 10 9 10 10 10 9 8 7 7 7 6 6 5 5 5 5 5 5 5 5 5 6 6 6 6 6 6 6 6 7 7 7 7 6 6 6 5 5 4 4 4 3 3 3 2 2 2 3 3 3
7 5 5 8 8 6 4 4 4 5 6 12 12 10 12 10 7 6 7 7 7 5 5 5 6 7 7 6 5 4 4 3 2 2 1 1 1 1 1 0 0 1 4 10 16 22 25 24 22 20 18 14 11 9 9 9 9 8 7 7 7 6 6 6 5 5 5 5 5 5 5 5 6 6 6 6 6 6 6 6 7 7 7 6 6 6 5 5 4 4 3 3 3 3 3 2 2 3 3 3 3 4 4
6 4 5 7 7 6 4 4 5 6 9 12 10 7 8 7 6 5 7 7 7 5 5 6 7 7 6 5 5 4 3 3 2 1 1 1 1 1 1 0 0 2 7 13 20 24 26 23 20 18 16 12 10 9 9 8 8 7 6 6 6 6 5 5 5 5 5 5 5 5 6 6 7 7 7 7 7 7 7 7 6 6 6 5 5 4 4 3 3 3 2 2 2 2 2 3 3 3 4 4 4 5 5
5 4 6 7 7 5 4 4 6 8 10 10 7 3 4 4 4 5 7 7 7 6 6 7 7 7 6 5 4 3 3 2 1 1 1 1 1 1 0 0 1 4 9 17 23 26 25 21 18 16 14 11 9 8 8 7 7 6 6 6 5 5 5 4 4 5 5 6 6 6 7 7 7 7 7 7 6 6 6 6 5 5 4 4 3 3 3 2 2 2 2 2 2 3 3 3 4 4 5 5 5 6 6
6 6 7 7 6 4 3 5 7 9 10 8 4 1 1 2 3 5 7 7 7 6 6 7 7 7 6 5 4 3 2 1 1 1 1 1 1 1 0 0 2 6 13 20 25 26 23 19 16 14 12 10 8 8 7 7 6 6 5 5 5 4 4 5 5 6 6 6 7 7 7 7 7 7 6 6 6 5 5 5 4 4 3 3 2 2 2 2 2 2 3 3 3 3 4 4 4 5 5 5 6 6 7
7 7 8 6 4 3 2 5 7 9 9 7 5 3 2 3 4 5 7 7 7 7 7 7 7 6 5 5 4 3 2 1 1 1 1 1 1 0 -0 0 3 9 17 23 26 25 21 17 14 12 10 9 8 7 6 6 6 5 5 4 4 5 5 6 6 6 7 7 7 7 7 6 6 6 6 5 5 4 4 3 3 2 2 2 2 2 2 2 3 3 3 3 4 4 4 4 5 5 5 6 6 7 7
6 7 8 5 4 3 2 4 7 8 8 8 7 6 5 5 5 6 7 7 7 7 7 7 7 6 5 5 3 2 1 1 1 1 1 1 1 0 -0 1 5 12 20 25 26 23 18 14 12 10 8 7 7 6 6 5 5 5 4 5 5 5 6 6 7 7 7 7 7 6 6 6 5 5 4 4 3 3 3 2 2 2 2 2 2 2 2 3 3 3 3 4 4 4 4 5 5 5 6 6 7 7 7
7 8 8 6 4 2 1 3 5 7 7 7 7 7 7 6 6 6 7 7 7 7 7 7 7 6 5 4 3 2 1 1 1 1 1 1 1 0 -0 2 8 15 23 26 25 21 15 13 10 9 7 7 6 5 5 5 4 5 5 5 6 6 7 7 7 7 6 6 6 6 5 5 4 4 3 3 3 2 2 2 2 2 2 2 3 3 3 3 3 4 4 4 4 4 5 5 5 6 6 6 7 7 7
7 8 8 7 5 2 1 2 3 5 5 6 6 7 7 6 6 6 6 7 7 7 7 7 7 6 5 4 3 2 1 1 1 1 1 1 0 -0 -0 4 11 19 25 26 23 18 13 11 9 7 7 6 5 5 4 4 5 5 6 6 6 6 6 6 6 6 5 5 5 5 4 4 3 3 3 3 2 2 2 2 3 3 3 3 3 3 4 4 4 4 4 4 5 5 5 5 6 6 6 6 7 6 6
9 8 6 7 5 4 3 4 4 4 3 4 5 7 7 6 5 6 6 7 7 7 7 7 7 6 5 4 2 1 1 1 1 1 1 1 0 -0 0 6 14 22 26 25 20 15 12 9 8 7 6 5 5 4 4 4 5 6 6 6 6 6 6 5 5 5 5 4 4 4 3 3 3 3 3 3 3 3 3 3 3 3 3 4 4 4 4 5 5 5 5 5 5 5 6 6 6 6 6 6 6 6 5
9 8 6 5 5 5 6 8 7 5 1 1 4 6 7 6 5 5 6 7 7 7 7 7 7 6 5 3 2 1 1 0 1 1 1 0 -0 -0 1 8 17 24 26 23 18 13 10 8 7 6 5 5 4 4 4 5 6 6 6 6 6 5 5 5 5 4 4 4 4 3 3 3 3 3 3 3 3 3 4 4 4 4 4 5 5 5 5 5 5 5 5 5 6 6 6 6 6 6 6 6 5 5 5
8 7 5 4 4 5 6 9 9 5 -1 -0 3 6 7 6 5 5 7 8 8 8 7 7 7 6 5 3 2 1 0 0 1 1 1 0 -1 0 3 11 20 26 26 20 15 11 9 7 6 6 5 5 5 5 5 6 6 6 6 6 5 5 5 4 4 4 4 4 4 4 4 4 4 4 4 4 4 4 4 4 5 5 5 5 5 5 5 5 5 5 5 5 6 6 6 6 6 6 6 6 5 5 5
7 5 4 3 3 4 6 8 8 5 1 3 5 8 7 6 5 5 7 8 8 8 8 8 7 6 5 3 1 1 0 0 1 1 1 -0 -1 1 5 14 22 26 24 18 13 10 8 7 6 5 4 5 5 5 6 6 6 5 5 5 5 4 4 4 4 4 4 4 4 4 4 4 4 4 4 5 5 5 5 5 5 5 5 5 5 5 5 5 5 5 5 5 6 6 6 6 6 6 6 5 5 5 4
3 3 3 3 3 4 6 7 7 6 4 6 8 9 7 5 4 5 7 8 9 8 8 8 7 6 4 3 1 1 0 0 1 1 0 -0 -0 2 7 17 24 26 23 16 11 9 7 6 5 5 5 5 6 6 6 6 5 5 5 5 5 5 5 5 5 5 4 4 4 4 5 5 5 5 5 5 5 5 5 5 5 5 5 5 5 5 5 5 5 5 5 5 5 6 6 6 6 6 6 6 5 5 5
-1 0 2 3 5 6 7 7 7 6 5 7 8 8 6 4 4 5 7 9 9 9 8 8 7 6 4 2 1 1 0 0 1 1 0 -0 0 3 9 19 25 26 21 14 10 8 6 6 5 5 5 5 6 6 5 5 5 5 5 5 5 5 5 5 5 5 5 5 5 5 5 4 4 4 4 4 4 4 4 4 4 4 4 4 4 4 4 4 4 5 5 5 5 5 6 6 6 6 6 6 5 5 5
-5 -2 0 3 5 6 7 7 6 6 5 6 7 6 4 4 4 5 8 9 9 9 8 8 7 5 3 2 1 1 0 0 1 1 0 -0 1 5 12 21 25 24 19 13 9 7 6 5 5 5 5 5 5 5 5 5 4 5 5 5 5 5 5 5 5 5 5 4 4 4 4 4 4 4 3 3 3 3 3 3 3 3 3 3 4 4 4 4 4 4 5 5 5 5 5 5 5 5 5 5 5 6 6
-2 -1 0 2 3 5 5 5 5 5 5 6 6 5 4 3 4 5 7 8 8 8 8 7 6 5 3 2 1 1 0 0 1 0 -0 0 2 6 14 23 25 23 17 11 8 6 5 5 5 5 5 5 5 5 5 4 4 5 5 5 5 5 6 5 5 5 4 4 4 3 3 3 3 3 3 3 3 3 3 3 3 3 3 3 3 4 4 4 4 4 5 5 5 5 5 5 5 5 5 5 5 5 6
3 3 3 2 3 4 3 3 3 4 4 6 7 6 3 3 4 5 7 7 8 8 8 7 6 4 3 2 1 1 0 0 1 0 -0 0 3 8 16 24 25 21 15 10 7 6 5 5 5 5 5 5 5 4 4 4 4 5 5 5 5 5 5 5 4 4 3 3 3 3 3 3 3 3 3 3 3 3 3 3 3 3 3 3 3 4 4 4 4 4 5 5 5 5 5 5 4 4 4 5 5 5 6
7 6 6 5 7 8 6 3 2 2 3 6 5 4 3 3 4 5 6 7 7 7 7 7 5 4 3 2 1 1 0 0 0 0 -0 1 4 9 18 24 24 19 13 10 7 5 5 5 5 6 5 4 4 4 4 4 5 5 5 5 5 5 4 4 3 3 2 2 2 2 2 2 2 2 2 2 3 3 3 3 3 3 3 3 3 4 4 4 4 4 5 5 5 5 5 4 4 4 4 4 5 5 5
8 8 8 7 8 9 7 3 1 2 3 3 2 1 2 3 4 5 5 6 6 6 7 6 5 4 3 2 1 1 0 1 1 0 -1 1 5 11 20 24 22 17 12 9 6 5 5 5 6 6 5 4 4 4 4 4 5 5 5 5 4 4 3 2 2 2 2 2 2 2 2 2 2 2 2 2 2 2 2 3 3 3 3 3 3 4 4 4 4 4 5 5 5 5 5 4 4 4 4 4 4 5 5
8 8 9 8 7 5 3 1 1 3 3 3 2 3 3 4 4 5 5 6 6 7 7 6 5 4 3 3 2 1 0 1 1 1 -0 1 6 13 21 23 21 16 11 8 6 5 5 6 6 5 4 4 4 4 4 4 5 5 5 4 3 3 2 1 1 1 2 2 2 2 2 2 2 2 2 2 2 2 2 3 3 3 3 3 3 3 4 4 4 4 5 5 5 5 5 4 4 4 4 4 4 4 5
8 9 10 9 7 4 -0 -2 0 3 5 4 4 4 5 4 4 5 6 6 7 7 7 6 4 3 3 2 2 1 1 1 1 1 1 3 7 13 21 22 20 15 9 7 6 5 5 6 5 5 4 4 4 4 4 4 4 4 4 3 2 2 1 1 1 1 2 2 2 2 2 2 2 2 2 3 3 3 3 3 3 3 3 3 3 3 4 4 4 4 5 5 5 5 5 5 5 4 4 4 4 4 4
7 8 9 10 8 6 2 1 1 4 6 6 5 5 5 4 4 5 6 7 7 7 7 6 5 3 3 2 1 1 1 1 0 0 1 4 9 14 20 21 18 13 9 7 6 5 5 5 5 4 4 4 4 4 4 4 4 4 3 2 1 1 1 1 1 2 2 2 2 2 2 2 2 2 3 3 3 3 3 3 3 3 3 3 4 4 4 4 4 5 5 5 5 5 5 5 5 5 4 4 4 4 4
7 7 8 9 10 9 8 6 3 3 5 6 5 5 4 4 5 5 7 7 7 7 7 6 5 3 3 2 1 1 1 1 0 0 1 5 11 16 20 21 17 12 8 6 5 5 5 5 5 4 4 4 4 4 4 4 3 3 2 1 1 1 1 1 1 2 2 2 2 2 2 2 2 2 3 3 3 3 3 3 3 4 4 4 4 4 4 4 5 5 5 5 5 5 5 5 5 5 5 4 4 4 3
7 7 7 9 10 12 14 10 5 1 0 3 4 4 4 4 5 6 7 7 7 7 7 6 5 3 2 2 1 1 1 1 1 1 1 5 12 18 22 20 16 11 7 6 6 5 5 5 5 4 4 4 4 4 4 3 3 2 1 1 1 1 1 1 1 1 2 2 2 2 2 2 2 3 3 3 3 3 3 4 4 4 4 4 4 4 5 5 5 5 5 5 5 5 5 5 5 5 5 5 4 4 4
8 8 7 7 9 13 18 11 4 -1 -4 0 3 3 3 4 5 6 7 8 7 7 7 7 5 4 2 2 1 1 1 1 1 1 2 6 13 19 23 20 15 10 7 6 6 5 5 5 5 5 5 4 4 4 4 3 2 1 1 1 1 1 1 1 1 1 1 2 2 2 2 2 2 3 3 3 3 4 4 4 4 4 4 4 4 5 5 5 5 5 5 5 5 5 5 5 5 5 5 5 5 4 4
7 9 8 7 8 11 15 8 2 -3 -5 -0 2 2 2 4 5 7 7 7 8 8 8 7 5 4 3 1 1 1 1 1 1 1 3 8 13 19 24 20 14 9 6 6 5 5 5 5 5 5 4 4 4 4 3 2 2 1 1 1 1 1 1 1 1 1 1 2 2 2 2 2 3 3 3 4 4 4 4 4 4 4 4 4 5 5 5 5 6 6 6 6 6 6 6 6 6 5 5 5 5 4 4
4 7 9 9 9 9 9 3 -2 -4 -3 1 1 -0 -0 3 6 7 7 7 7 7 8 7 5 4 2 2 1 1 1 2 2 3 4 8 14 20 24 19 13 9 6 6 5 5 5 5 5 5 4 4 3 3 3 2 2 1 1 1 1 1 1 1 1 1 1 1 2 2 2 3 3 3 4 4 4 4 4 4 4 4 4 5 5 5 5 5 6 6 6 6 6 6 6 6 6 5 5 5 5 5 4
1 4 9 10 10 8 7 2 -1 -1 1 1 0 -1 -1 3 6 7 7 7 7 7 8 7 6 4 2 2 2 2 2 2 3 4 5 9 15 20 23 18 12 8 7 6 5 4 4 5 5 5 4 3 3 3 2 2 1 1 1 1 1 1 1 1 1 1 1 1 2 2 2 3 3 4 4 4 4 4 4 4 4 4 4 4 5 5 5 6 6 6 6 6 6 6 6 6 6 6 6 5 5 5 5
2 5 10 12 11 9 8 5 4 4 6 3 0 -1 0 4 7 7 7 7 8 8 9 8 7 5 3 3 2 2 2 3 3 5 7 11 16 20 22 16 11 7 7 5 4 4 4 5 5 4 3 3 3 2 2 2 1 1 1 1 1 1 1 1 1 1 1 1 2 2 3 3 4 4 4 4 5 4 4 4 4 4 4 4 5 5 5 6 6 6 6 6 6 6 6 6 6 6 6 6 5 5 5
5 7 12 13 12 9 9 7 5 6 10 5 2 1 3 6 7 7 7 7 8 9 10 9 8 6 4 3 2 2 2 3 4 6 7 12 16 20 20 15 10 7 6 4 4 4 5 5 5 4 3 2 2 2 2 2 1 1 1 1 1 1 1 1 1 1 1 1 2 2 3 4 4 4 5 5 5 4 4 4 4 4 4 4 4 5 5 5 6 6 7 7 7 7 7 6 6 6 6 6 6 6 5
7 7 10 14 12 7 6 5 5 7 10 8 6 4 6 7 7 6 6 7 8 10 11 10 7 5 4 3 2 2 2 3 4 7 9 12 16 19 19 13 9 7 5 4 4 4 5 5 4 4 2 2 2 2 2 1 1 1 1 1 1 1 1 1 1 1 1 2 2 3 3 4 4 5 5 5 5 4 4 4 4 4 4 4 4 4 5 5 5 6 6 7 7 7 7 7 6 6 6 6 6 6 6
6 4 5 13 12 7 3 4 6 7 9 9 8 7 8 7 5 4 5 7 8 10 11 9 7 5 3 2 2 2 2 2 4 8 13 14 16 17 17 12 8 6 5 4 4 4 5 5 4 3 1 1 2 2 1 1 1 1 1 1 1 1 1 1 1 1 1 2 3 3 4 4 5 5 5 5 5 5 4 4 4 4 4 4 4 4 4 5 5 5 6 7 7 7 7 7 7 6 6 6 6 6 6
7 1 -2 8 10 8 3 5 6 7 8 9 9 9 8 5 3 1 2 5 8 10 10 9 7 5 3 2 1 1 1 2 4 8 14 16 16 16 15 10 8 6 4 3 4 5 5 4 3 2 1 1 2 2 1 2 1 1 1 1 1 1 1 1 1 1 2 2 3 3 4 4 5 5 5 5 5 5 5 4 4 4 4 4 4 4 4 4 5 5 6 6 7 7 7 7 7 6 6 6 6 6 6
12 2 -6 0 6 8 4 4 5 5 7 8 9 9 8 5 1 -1 -1 3 7 10 11 9 7 5 3 2 2 2 2 2 5 9 13 15 16 16 14 9 7 6 4 3 4 4 4 4 3 2 1 1 2 2 2 2 1 1 1 1 1 1 1 1 1 1 2 2 3 3 4 4 5 5 5 5 5 5 5 4 4 4 4 5 5 5 5 4 4 5 5 6 6 7 7 7 7 7 6 6 6 6 6
17 8 -4 -5 0 5 5 5 4 5 6 7 8 8 8 5 4 3 2 3 5 8 10 9 7 5 5 3 3 2 2 3 7 11 15 15 15 14 12 8 7 5 4 4 4 4 4 4 3 1 1 1 1 2 2 2 1 1 1 2 2 1 1 1 1 1 2 3 3 3 4 4 4 5 5 5 5 5 5 5 5 5 5 5 5 5 5 5 5 5 5 6 6 6 7 7 7 7 6 6 6 6 6
19 13 1 -5 -2 4 8 7 6 5 5 5 6 7 8 7 9 10 7 4 5 7 10 9 7 5 4 4 3 3 3 4 7 12 16 16 15 12 10 7 6 5 4 5 4 4 4 3 2 1 0 1 2 3 2 2 2 2 2 2 1 1 1 1 1 1 2 3 3 3 3 4 4 4 5 5 5 5 5 5 5 5 5 5 5 5 5 5 5 5 5 6 6 6 7 7 7 7 7 6 6 6 7
17 15 6 -3 -2 4 11 11 9 8 5 2 2 3 6 8 11 11 7 6 5 6 9 10 9 6 3 3 3 3 2 4 7 12 16 16 14 10 8 7 5 4 4 4 4 4 4 3 1 0 -0 2 3 3 2 2 2 2 2 2 1 1 1 1 1 2 2 3 3 3 3 3 4 4 4 5 5 5 5 5 5 5 5 5 5 5 5 6 6 6 6 6 6 6 7 7 7 7 8 7 7 7 7
14 15 10 -4 -7 -2 8 13 14 12 8 2 -2 -2 2 7 8 7 4 7 7 6 7 10 11 8 4 3 3 3 2 4 7 12 16 15 12 9 7 6 4 3 3 4 5 5 4 3 1 0 1 2 3 3 3 3 3 2 1 1 1 1 1 1 1 2 2 3 3 3 3 3 3 4 4 4 4 5 5 5 5 5 5 5 6 5 6 6 6 6 7 7 7 7 7 7 7 7 7 7 7 7 7
13 17 19 -0 -11 -14 -6 5 13 16 15 7 -1 -5 -1 4 3 1 1 7 8 6 7 9 11 10 6 4 3 3 2 3 7 13 18 15 11 8 6 5 3 2 2 3 5 5 5 3 1 1 2 3 3 3 4 3 3 2 1 1 1 1 1 1 1 2 3 3 3 3 3 3 3 3 3 4 4 4 4 5 5 5 5 5 6 6 6 6 6 7 7 7 8 8 8 8 8 8 7 6 7 7 8
15 21 31 16 0 -11 -15 -8 3 13 22 14 5 -1 -1 1 1 -0 -0 6 7 6 6 9 11 10 7 4 3 2 2 3 7 13 20 16 11 7 6 4 3 2 2 3 4 6 5 3 2 2 2 3 4 4 5 4 3 2 2 1 1 0 1 1 2 2 3 3 3 3 3 3 3 3 3 3 3 4 4 5 5 5 5 5 5 6 6 6 7 7 7 7 8 9 10 10 10 10 8 7 7 7 8
16 22 36 34 24 8 -10 -11 -8 2 19 20 13 3 -3 -2 2 4 1 4 5 6 5 9 11 11 8 5 3 2 2 4 8 14 20 16 11 7 5 4 3 2 3 3 5 6 6 4 3 3 3 3 4 5 5 4 3 2 1 1 0 0 1 1 2 3 3 3 3 2 2 2 2 2 2 3 3 3 4 4 5 5 5 5 5 6 7 7 7 7 7 7 8 9 10 10 9 9 8 7 7 7 8
11 18 28 38 36 23 -1 -6 -9 -6 9 19 15 4 -8 -4 3 7 4 2 3 5 5 9 10 10 9 6 4 3 3 6 10 15 20 15 10 7 5 3 2 2 3 4 6 6 6 5 3 3 3 4 5 6 5 4 3 2 1 0 0 0 1 2 2 3 3 3 2 2 2 2 2 2 2 2 2 3 4 4 5 5 5 5 5 6 7 7 7 7 7 7 8 8 9 9 8 8 7 6 7 8 8
-4 9 14 24 30 26 5 -1 -5 -6 -1 12 11 3 -7 -3 4 9 8 3 2 3 5 8 10 10 8 7 6 5 4 6 10 14 18 13 9 6 5 3 2 1 2 5 7 7 7 5 4 4 4 6 6 6 5 3 2 1 0 0 0 1 1 2 2 2 3 2 2 2 2 2 2 1 1 2 2 3 4 5 5 6 5 5 5 6 6 6 7 7 7 8 8 9 9 10 10 10 9 9 9 8 8
-19 -6 4 9 16 19 11 3 -1 -3 -6 0 3 3 1 3 7 11 11 6 3 3 5 8 10 10 7 5 5 5 4 6 9 13 13 10 7 5 4 3 2 2 1 4 7 8 7 6 5 5 6 6 6 6 4 3 2 1 0 0 0 0 1 1 2 2 3 2 3 3 2 2 1 1 1 2 3 3 4 5 6 6 6 6 6 6 6 6 6 7 7 7 8 9 10 11 11 11 11 10 9 9 8
-20 -16 -3 3 6 9 11 7 4 0 -6 -8 -4 3 9 9 11 13 13 8 6 4 6 9 11 11 7 4 4 4 4 5 9 12 13 6 5 4 2 1 0 1 2 4 6 8 8 6 6 6 7 7 7 6 4 3 1 0 0 1 1 1 1 2 2 2 2 2 2 2 2 2 2 2 2 3 3 3 4 5 5 6 6 6 6 5 5 6 6 6 7 7 8 9 10 11 11 11 11 11 10 9 8
-16 -16 -7 0 3 5 6 8 7 5 1 -5 -3 2 9 11 13 14 14 12 9 7 6 9 11 12 9 4 3 3 4 5 8 11 13 7 3 1 2 2 1 -0 1 3 6 8 9 7 6 6 7 7 6 5 4 2 1 0 1 1 1 1 2 2 2 2 2 2 2 3 3 3 3 3 3 3 3 3 3 4 5 6 6 6 6 5 5 5 6 6 6 7 7 8 9 10 11 11 12 12 11 10 9
-19 -17 -8 1 6 7 6 7 8 9 8 5 3 3 5 10 13 14 14 13 11 8 7 8 11 13 13 7 3 3 4 5 7 8 7 5 2 -0 -2 1 3 3 1 2 3 5 8 7 7 6 7 7 6 4 3 1 1 0 1 1 1 2 2 2 2 2 2 2 2 3 3 4 4 4 4 3 2 2 3 4 5 6 7 6 5 4 4 5 5 6 6 7 8 8 9 10 10 11 11 12 12 11 11
-18 -21 -13 -1 6 10 11 9 9 10 10 10 9 9 8 11 11 11 11 12 11 10 8 9 10 12 14 10 6 4 5 5 7 9 6 3 3 3 -0 2 2 2 3 3 3 4 5 5 6 6 6 6 5 4 2 1 1 1 1 2 2 2 2 2 2 2 2 3 3 4 4 4 4 4 3 2 2 3 4 4 5 6 6 5 4 3 3 3 4 5 6 7 8 9 9 10 10 10 11 11 11 11 11
-10 -17 -18 -6 5 13 16 15 13 11 10 9 11 13 14 11 6 4 5 9 10 11 10 10 11 11 12 10 7 5 5 5 7 10 12 6 4 3 3 1 1 2 4 7 9 8 4 5 5 5 5 6 5 3 2 1 1 1 1 2 2 2 2 2 2 2 3 4 4 4 4 4 3 2 1 2 3 4 5 5 5 5 5 4 3 3 2 2 3 4 5 7 8 9 10 11 11 11 10 9 9 9 10
-0 -9 -14 -11 -2 8 12 14 14 14 12 9 9 11 14 9 1 -5 -3 3 8 10 11 11 12 12 10 8 5 3 1 3 6 10 14 10 4 -2 -4 -4 -3 -1 1 4 8 10 8 5 5 5 5 5 4 3 2 1 1 1 2 2 2 2 2 2 2 3 5 5 5 4 3 1 1 1 1 4 5 5 5 5 4 4 3 3 3 3 3 3 3 3 5 6 7 8 10 12 12 12 11 9 8 8 8
9 -0 -10 -13 -6 3 6 9 12 14 15 12 10 9 10 6 0 -3 2 1 3 7 11 11 13 13 12 7 4 2 -1 1 6 11 13 9 5 1 -3 0 1 1 -0 -0 2 6 10 7 5 5 6 5 4 3 2 1 1 1 2 2 2 2 2 2 3 5 6 5 4 2 1 0 0 1 4 6 6 6 5 3 2 2 1 2 2 3 3 4 4 4 5 5 6 8 10 12 14 14 12 10 8 7 7
16 9 -3 -11 -7 -1 2 4 7 12 15 15 14 12 10 4 2 6 19 4 0 4 10 12 14 15 14 7 4 1 -2 1 6 12 13 8 6 5 3 2 1 2 4 4 4 5 6 7 7 5 5 4 3 3 2 1 1 2 2 2 2 2 2 3 4 5 5 3 2 1 1 1 1 3 5 6 6 4 2 -0 -2 -2 -2 -1 1 2 3 4 5 5 5 6 6 7 9 11 13 14 13 11 9 7 7
16 14 7 -3 -5 -3 0 1 4 8 12 15 17 17 14 5 5 13 28 7 -0 2 9 12 15 16 15 10 4 -1 -3 1 7 13 14 7 4 3 4 2 -0 -1 0 5 7 8 6 7 7 5 5 4 3 2 2 2 2 2 2 2 2 2 3 3 4 4 3 1 1 0 1 1 3 4 5 5 4 2 -1 -2 -4 -5 -5 -3 -2 -1 1 3 5 6 7 7 7 8 9 10 11 12 12 11 9 8 7
14 13 12 6 1 -2 -2 -1 2 5 9 13 17 19 18 7 8 17 30 9 1 2 8 12 15 17 15 11 5 -1 -3 3 9 13 14 8 4 2 1 1 1 1 1 4 6 7 9 9 7 5 6 5 3 1 0 1 2 2 1 2 2 2 2 3 3 2 2 1 1 1 1 2 4 5 5 5 3 1 -0 -2 -3 -4 -4 -3 -2 -1 -0 2 4 6 8 8 9 9 10 10 10 10 10 10 9 8 7
11 10 13 12 8 2 -3 -4 -1 2 7 10 15 18 21 11 12 18 24 7 2 4 8 12 16 17 16 11 5 -0 -2 4 9 12 11 9 6 3 1 1 1 2 4 5 6 7 7 8 9 8 6 6 6 3 -1 -1 0 2 2 2 2 2 2 2 2 2 2 2 2 1 1 3 5 5 3 2 1 0 -1 -2 -3 -3 -3 -2 -1 0 1 2 4 6 8 9 10 11 12 11 11 9 9 9 8 7 7
11 9 10 13 13 8 0 -4 -4 -1 3 8 12 16 20 15 13 12 10 -4 -3 4 9 12 15 18 17 11 4 -1 -2 3 8 11 10 7 3 1 1 -0 0 1 2 4 5 6 4 5 8 9 6 6 7 6 2 -1 -2 -1 1 2 2 2 2 2 2 2 3 2 1 2 3 5 4 3 1 -1 -1 -2 -3 -4 -4 -4 -3 -2 -0 1 2 3 5 6 7 9 11 12 14 13 12 10 8 8 8 7 7
12 7 5 11 14 13 7 0 -3 -2 2 6 10 14 18 17 13 7 -3 -20 -17 -4 8 11 15 18 18 11 5 0 -0 4 7 9 9 6 4 2 0 -1 -1 -1 1 2 3 5 4 5 5 6 6 6 7 7 6 3 0 -2 -2 -0 1 1 1 2 2 2 2 2 3 4 7 5 3 1 -0 -1 -1 -2 -3 -4 -5 -4 -3 -1 1 2 3 4 5 6 7 8 10 12 14 14 12 10 8 8 7 7 7
Height
3160 3160 3161 3161 3161 3161 3162 3162 3163 3163 3164 3164 3165 3166 3167 3167 3167 3168 3169 3170 3171 3171 3172 3172 3172 3172 3173 3173 3173 3173 3174 3174 3174 3175 3175 3175 3175 3175 3175 3175 3174 3174 3174 3173 3173 3173 3172 3172 3172 3172 3172 3172 3172 3172 3173 3173 3173 3174 3174 3174 3175 3175 3175 3175 3176 3176 3176 3177 3177 3177 3177 3177 3178 3178 3178 3178 3178 3178 3178 3178 3178 3178 3178 3178 3178 3178 3178 3178 3178 3178 3178 3178 3178 3177 3177 3177 3177 3177 3177 3177 3176 3176 3176
3161 3161 3161 3161 3160 3161 3161 3162 3162 3163 3163 3164 3165 3166 3167 3167 3167 3168 3169 3170 3170 3171 3171 3172 3172 3172 3172 3173 3173 3173 3173 3174 3174 3174 3174 3174 3174 3174 3174 3174 3174 3174 3173 3173 3173 3172 3172 3172 3172 3172 3172 3172 3172 3172 3173 3173 3174 3174 3174 3175 3175 3175 3176 3176 3176 3176 3177 3177 3177 3177 3178 3178 3178 3178 3178 3178 3178 3178 3179 3179 3179 3179 3179 3179 3178 3178 3178 3178 3178 3178 3178 3178 3178 3178 3178 3177 3177 3177 3177 3177 3176 3176 3176
3160 3160 3160 3161 3160 3160 3160 3161 3162 3162 3163 3164 3165 3166 3166 3167 3167 3167 3168 3169 3170 3170 3171 3171 3171 3172 3172 3172 3173 3173 3173 3173 3174 3174 3174 3174 3174 3174 3174 3174 3174 3173 3173 3173 3172 3172 3172 3172 3172 3172 3172 3172 3172 3173 3173 3173 3174 3174 3175 3175 3175 3176 3176 3176 3177 3177 3177 3177 3177 3178 3178 3178 3178 3178 3178 3179 3179 3179 3179 3179 3179 3179 3179 3179 3179 3179 3179 3179 3178 3178 3178 3178 3178 3178 3178 3177 3177 3177 3177 3177 3176 3176 3176
3159 3159 3160 3160 3160 3159 3160 3161 3161 3162 3163 3164 3165 3166 3166 3166 3167 3167 3168 3169 3169 3170 3170 3171 3171 3171 3172 3172 3172 3172 3173 3173 3173 3174 3174 3174 3174 3174 3174 3174 3174 3173 3173 3172 3172 3172 3172 3171 3171 3172 3172 3172 3172 3173 3173 3174 3174 3175 3175 3175 3176 3176 3176 3177 3177 3177 3177 3178 3178 3178 3178 3178 3179 3179 3179 3179 3179 3179 3179 3179 3179 3179 3179 3179 3179 3179 3179 3179 3179 3179 3178 3178 3178 3178 3178 3177 3177 3177 3177 3177 3176 3176 3176
3159 3159 3159 3160 3159 3159 3159 3160 3161 3162 3162 3164 3165 3165 3165 3166 3166 3167 3168 3168 3169 3169 3170 3170 3171 3171 3171 3172 3172 3172 3172 3173 3173 3173 3173 3174 3174 3174 3174 3174 3173 3173 3173 3172 3172 3172 3172 3172 3172 3172 3172 3172 3173 3173 3174 3174 3175 3175 3175 3176 3176 3177 3177 3177 3177 3177 3178 3178 3178 3179 3179 3179 3179 3179 3179 3179 3179 3179 3179 3179 3179 3179 3179 3179 3179 3179 3179 3179 3179 3179 3179 3178 3178 3178 3178 3178 3177 3177 3177 3177 3176 3176 3176
3158 3159 3159 3159 3159 3159 3159 3160 3161 3161 3162 3164 3165 3164 3165 3165 3166 3167 3167 3168 3169 3169 3169 3170 3170 3170 3171 3171 3172 3172 3172 3172 3172 3173 3173 3173 3173 3173 3173 3173 3173 3173 3173 3172 3172 3172 3172 3172 3172 3172 3172 3172 3173 3173 3174 3174 3175 3175 3176 3176 3177 3177 3177 3177 3178 3178 3178 3178 3178 3179 3179 3179 3179 3179 3179 3179 3179 3179 3180 3180 3180 3180 3180 3180 3179 3179 3179 3179 3179 3179 3179 3179 3178 3178 3178 3178 3177 3177 3177 3177 3176 3176 3176
3157 3158 3159 3159 3159 3159 3158 3159 3160 3161 3161 3163 3164 3164 3164 3165 3166 3166 3167 3168 3168 3169 3169 3169 3170 3170 3170 3171 3171 3172 3172 3172 3172 3172 3173 3173 3173 3173 3173 3173 3173 3173 3172 3172 3172 3172 3172 3172 3172 3172 3172 3173 3173 3174 3174 3175 3175 3176 3176 3176 3177 3177 3177 3178 3178 3178 3178 3178 3179 3179 3179 3179 3179 3179 3179 3179 3180 3180 3180 3180 3180 3180 3180 3180 3180 3180 3180 3180 3179 3178 3179 3179 3178 3178 3178 3178 3177 3177 3177 3177 3176 3176 3176
3156 3157 3158 3159 3159 3158 3158 3159 3160 3160 3161 3163 3163 3163 3164 3164 3165 3166 3167 3167 3168 3168 3168 3169 3169 3169 3170 3170 3171 3171 3172 3172 3172 3172 3172 3173 3173 3173 3173 3173 3173 3172 3172 3172 3172 3172 3172 3172 3172 3172 3173 3173 3174 3174 3174 3175 3175 3176 3176 3177 3177 3177 3177 3178 3178 3178 3178 3179 3179 3179 3179 3179 3180 3180 3180 3180 3180 3180 3180 3180 3180 3180 3180 3180 3180 3180 3180 3180 3180 3179 3180 3179 3179 3178 3178 3178 3177 3177 3177 3177 3176 3176 3176
3155 3156 3157 3158 3158 3158 3158 3159 3159 3160 3161 3162 3163 3163 3163 3164 3164 3166 3166 3167 3167 3168 3168 3168 3169 3169 3169 3170 3170 3171 3171 3171 3172 3172 3172 3172 3173 3173 3173 3172 3172 3172 3172 3172 3172 3172 3172 3172 3172 3173 3173 3174 3174 3174 3175 3175 3176 3176 3177 3177 3177 3177 3178 3178 3178 3178 3179 3179 3179 3179 3180 3180 3180 3180 3180 3180 3180 3180 3180 3180 3180 3180 3180 3180 3180 3180 3180 3180 3180 3180 3180 3179 3179 3178 3178 3178 3177 3177 3177 3177 3177 3176 3176
3154 3155 3157 3157 3158 3158 3158 3158 3159 3159 3160 3161 3162 3162 3163 3163 3164 3165 3166 3167 3167 3167 3168 3168 3168 3168 3169 3169 3170 3170 3171 3171 3171 3172 3172 3172 3172 3172 3172 3172 3172 3172 3172 3172 3172 3172 3172 3173 3173 3173 3173 3174 3174 3175 3175 3175 3176 3176 3177 3177 3177 3177 3178 3178 3178 3179 3179 3179 3179 3180 3180 3180 3180 3180 3180 3180 3180 3180 3180 3180 3180 3180 3180 3180 3180 3180 3180 3180 3180 3180 3179 3179 3179 3179 3178 3178 3178 3177 3177 3177 3177 3176 3175
3154 3155 3156 3157 3157 3158 3157 3158 3158 3159 3160 3160 3161 3162 3162 3162 3163 3164 3165 3166 3167 3167 3167 3167 3168 3168 3168 3169 3170 3170 3170 3171 3171 3171 3172 3172 3172 3172 3172 3172 3172 3172 3172 3172 3172 3172 3173 3173 3173 3173 3174 3174 3175 3175 3175 3176 3176 3177 3177 3177 3177 3178 3178 3178 3179 3179 3179 3179 3179 3180 3180 3180 3180 3180 3180 3180 3180 3181 3180 3181 3181 3181 3181 3181 3181 3180 3180 3180 3180 3180 3180 3179 3179 3179 3178 3178 3178 3177 3177 3177 3177 3176 3176
3154 3155 3154 3156 3156 3157 3157 3157 3158 3158 3159 3160 3160 3161 3162 3162 3163 3164 3165 3166 3166 3167 3167 3167 3167 3168 3168 3169 3169 3170 3170 3170 3171 3171 3171 3171 3172 3172 3172 3172 3172 3172 3172 3172 3172 3172 3173 3173 3173 3174 3174 3174 3175 3175 3176 3176 3176 3177 3177 3177 3177 3178 3178 3178 3179 3179 3179 3180 3180 3180 3180 3180 3180 3180 3180 3181 3181 3181 3181 3181 3181 3181 3181 3181 3181 3181 3180 3180 3180 3180 3180 3179 3179 3179 3179 3178 3178 3177 3177 3177 3176 3176 3176
3153 3153 3153 3154 3155 3156 3156 3157 3157 3157 3158 3159 3160 3160 3161 3161 3162 3163 3164 3165 3166 3166 3166 3167 3167 3167 3168 3168 3169 3169 3169 3170 3170 3170 3171 3171 3171 3171 3171 3171 3172 3172 3172 3172 3172 3173 3173 3173 3174 3174 3174 3175 3175 3175 3176 3176 3177 3177 3177 3177 3178 3178 3178 3179 3179 3179 3179 3180 3180 3180 3180 3180 3180 3180 3181 3181 3181 3181 3181 3181 3181 3181 3181 3181 3181 3181 3181 3180 3180 3180 3180 3179 3179 3179 3179 3178 3178 3177 3177 3177 3177 3176 3176
3152 3152 3152 3152 3153 3154 3155 3156 3157 3157 3158 3159 3159 3159 3160 3161 3161 3162 3163 3164 3165 3165 3166 3166 3166 3167 3167 3168 3168 3169 3169 3169 3170 3170 3170 3171 3171 3171 3171 3171 3171 3172 3172 3172 3172 3173 3173 3173 3174 3174 3175 3175 3175 3176 3176 3177 3177 3177 3177 3178 3178 3178 3179 3179 3179 3179 3180 3180 3180 3180 3180 3181 3181 3181 3181 3181 3181 3181 3181 3181 3181 3181 3181 3181 3181 3181 3181 3180 3180 3180 3180 3179 3179 3179 3179 3178 3178 3178 3177 3177 3177 3176 3176
3151 3152 3151 3151 3152 3153 3154 3155 3157 3157 3158 3158 3158 3159 3159 3160 3161 3162 3163 3164 3164 3165 3165 3165 3166 3167 3167 3167 3168 3168 3169 3169 3169 3170 3170 3170 3171 3171 3171 3171 3171 3171 3172 3172 3172 3173 3173 3174 3174 3174 3175 3175 3175 3176 3176 3177 3177 3177 3177 3178 3178 3179 3179 3179 3179 3180 3180 3180 3180 3180 3181 3181 3181 3181 3181 3181 3181 3181 3181 3181 3181 3181 3181 3181 3181 3181 3181 3181 3180 3180 3180 3179 3179 3179 3179 3178 3178 3178 3177 3177 3177 3176 3176
3151 3151 3151 3151 3151 3152 3152 3154 3155 3156 3157 3157 3158 3158 3158 3159 3160 3161 3162 3163 3163 3164 3164 3165 3166 3166 3167 3167 3167 3168 3168 3169 3169 3169 3170 3170 3170 3170 3171 3171 3171 3171 3172 3172 3172 3173 3173 3173 3174 3174 3175 3175 3175 3176 3176 3177 3177 3177 3177 3178 3178 3179 3179 3179 3180 3180 3180 3180 3180 3181 3181 3181 3181 3181 3181 3181 3181 3181 3181 3181 3181 3181 3181 3181 3181 3181 3181 3181 3180 3180 3180 3180 3179 3179 3179 3178 3178 3178 3177 3177 3177 3176 3176
3151 3150 3150 3150 3150 3151 3151 3152 3153 3154 3155 3156 3157 3157 3158 3158 3159 3160 3161 3162 3162 3163 3164 3164 3165 3166 3166 3167 3167 3167 3168 3168 3169 3169 3169 3170 3170 3170 3170 3171 3171 3171 3172 3172 3172 3173 3173 3173 3174 3174 3175 3175 3175 3176 3176 3177 3177 3177 3178 3178 3178 3179 3179 3180 3180 3180 3180 3180 3181 3181 3181 3181 3181 3181 3181 3181 3181 3181 3181 3181 3181 3181 3181 3181 3181 3181 3181 3181 3180 3180 3180 3180 3179 3179 3179 3178 3178 3178 3177 3177 3177 3176 3176
3150 3149 3148 3148 3149 3150 3150 3151 3152 3152 3153 3154 3155 3157 3157 3157 3158 3159 3160 3161 3162 3162 3163 3164 3164 3165 3166 3166 3167 3167 3167 3168 3168 3168 3169 3169 3169 3170 3170 3170 3171 3171 3171 3172 3172 3172 3173 3173 3174 3174 3175 3175 3175 3176 3176 3177 3177 3177 3178 3178 3179 3179 3179 3180 3180 3180 3180 3180 3181 3181 3181 3181 3181 3181 3181 3181 3181 3181 3181 3182 3181 3181 3181 3181 3181 3181 3181 3180 3180 3180 3180 3179 3179 3179 3179 3178 3178 3177 3177 3177 3177 3176 3176
3147 3147 3147 3147 3148 3149 3149 3150 3150 3151 3152 3153 3154 3156 3156 3156 3157 3158 3159 3160 3161 3161 3162 3163 3164 3164 3165 3166 3166 3167 3167 3167 3168 3168 3168 3169 3169 3169 3170 3170 3170 3171 3171 3172 3172 3172 3173 3173 3174 3174 3175 3175 3175 3176 3176 3177 3177 3177 3178 3178 3179 3179 3179 3180 3180 3180 3181 3181 3181 3181 3181 3181 3181 3181 3182 3182 3181 3181 3181 3182 3181 3181 3181 3181 3181 3181 3181 3180 3180 3180 3180 3179 3179 3179 3178 3178 3178 3177 3177 3177 3176 3176 3176
3145 3146 3146 3147 3148 3148 3148 3149 3149 3150 3151 3152 3153 3155 3155 3155 3156 3157 3158 3159 3160 3160 3162 3162 3163 3164 3164 3165 3165 3166 3166 3167 3167 3167 3168 3168 3168 3169 3169 3170 3170 3171 3171 3172 3172 3172 3173 3173 3173 3174 3174 3175 3175 3176 3176 3177 3177 3178 3178 3178 3179 3179 3180 3180 3180 3180 3181 3181 3181 3181 3181 3181 3181 3182 3182 3182 3182 3181 3181 3181 3181 3181 3181 3181 3181 3181 3180 3180 3180 3180 3179 3179 3179 3179 3178 3178 3178 3177 3177 3177 3176 3176 3175
3144 3144 3144 3146 3147 3148 3149 3148 3148 3148 3149 3151 3153 3153 3153 3154 3154 3156 3157 3157 3158 3159 3161 3162 3162 3163 3164 3164 3165 3165 3166 3166 3167 3167 3167 3168 3168 3168 3169 3169 3170 3170 3171 3171 3172 3172 3172 3173 3173 3174 3174 3175 3175 3176 3176 3177 3177 3178 3178 3178 3179 3179 3180 3180 3180 3181 3181 3181 3181 3181 3181 3181 3181 3182 3182 3182 3181 3181 3181 3181 3181 3181 3181 3181 3181 3181 3180 3180 3180 3180 3179 3179 3179 3178 3178 3178 3177 3177 3177 3177 3176 3176 3175
3142 3143 3143 3144 3146 3148 3149 3148 3147 3147 3147 3150 3152 3152 3152 3152 3153 3154 3155 3156 3157 3159 3160 3161 3162 3162 3163 3163 3164 3164 3165 3166 3166 3167 3167 3167 3167 3168 3168 3169 3169 3170 3171 3171 3172 3172 3172 3172 3173 3174 3174 3175 3175 3176 3176 3177 3177 3178 3178 3178 3179 3179 3180 3180 3180 3181 3181 3181 3181 3181 3181 3181 3181 3181 3182 3182 3181 3181 3181 3181 3181 3181 3181 3181 3181 3180 3180 3180 3180 3179 3179 3179 3179 3178 3178 3178 3177 3177 3177 3176 3176 3176 3175
3140 3141 3142 3143 3144 3146 3147 3147 3146 3145 3146 3148 3150 3150 3150 3151 3152 3153 3154 3155 3157 3158 3159 3160 3161 3161 3162 3163 3163 3164 3164 3165 3165 3166 3166 3167 3167 3167 3168 3168 3169 3170 3170 3171 3171 3172 3172 3172 3173 3173 3174 3174 3175 3176 3176 3177 3177 3178 3178 3179 3179 3179 3180 3180 3180 3181 3181 3181 3181 3181 3181 3181 3181 3181 3181 3181 3181 3181 3181 3181 3181 3181 3181 3181 3180 3180 3180 3180 3179 3179 3179 3179 3178 3178 3178 3177 3177 3177 3177 3176 3176 3175 3175
3139 3140 3141 3141 3142 3144 3146 3147 3146 3144 3144 3146 3147 3148 3149 3150 3151 3152 3153 3154 3156 3157 3158 3159 3160 3161 3161 3162 3162 3163 3164 3164 3165 3165 3166 3166 3167 3167 3167 3168 3169 3169 3170 3170 3171 3171 3172 3172 3173 3173 3174 3174 3175 3176 3176 3177 3177 3178 3178 3178 3179 3179 3180 3180 3180 3181 3181 3181 3181 3181 3181 3181 3181 3181 3181 3181 3181 3181 3181 3181 3181 3181 3181 3180 3180 3180 3180 3179 3179 3179 3179 3178 3178 3178 3178 3177 3177 3177 3176 3176 3176 3175 3175
3137 3138 3139 3140 3141 3142 3144 3146 3145 3144 3143 3144 3145 3147 3148 3149 3150 3151 3152 3154 3155 3157 3157 3158 3159 3160 3160 3161 3162 3162 3163 3163 3164 3165 3165 3166 3166 3167 3167 3167 3168 3169 3169 3170 3171 3171 3171 3172 3172 3173 3174 3174 3175 3175 3176 3177 3177 3178 3178 3178 3179 3179 3180 3180 3180 3180 3181 3181 3181 3181 3181 3181 3181 3181 3181 3181 3181 3181 3181 3181 3181 3181 3180 3180 3180 3180 3179 3179 3179 3179 3178 3178 3178 3178 3177 3177 3177 3177 3176 3176 3175 3175 3174
3135 3137 3137 3138 3139 3140 3142 3144 3144 3143 3142 3143 3144 3146 3147 3148 3149 3150 3151 3152 3154 3156 3157 3157 3158 3159 3159 3160 3161 3162 3162 3163 3163 3164 3164 3165 3165 3166 3167 3167 3168 3168 3169 3169 3170 3171 3171 3172 3172 3173 3173 3174 3175 3175 3176 3177 3177 3177 3178 3178 3179 3179 3179 3180 3180 3180 3180 3181 3181 3181 3181 3181 3181 3181 3181 3181 3181 3181 3181 3181 3180 3180 3180 3180 3180 3179 3179 3179 3179 3178 3178 3178 3178 3177 3177 3177 3177 3176 3176 3176 3175 3175 3174
3134 3134 3136 3137 3138 3139 3140 3142 3143 3143 3142 3142 3143 3144 3146 3147 3147 3148 3150 3152 3153 3154 3155 3156 3157 3158 3158 3159 3160 3161 3162 3162 3163 3163 3164 3164 3165 3165 3166 3167 3167 3168 3168 3169 3170 3170 3171 3171 3172 3172 3173 3174 3174 3175 3176 3176 3177 3177 3178 3178 3178 3179 3179 3179 3180 3180 3180 3180 3181 3181 3181 3181 3181 3181 3181 3181 3181 3180 3180 3180 3180 3180 3180 3180 3179 3179 3179 3179 3178 3178 3178 3178 3177 3177 3177 3177 3176 3176 3176 3175 3175 3174 3174
3132 3132 3134 3135 3136 3137 3138 3140 3142 3142 3141 3141 3142 3143 3144 3146 3147 3147 3149 3151 3152 3153 3154 3155 3156 3157 3157 3158 3159 3160 3161 3161 3162 3162 3163 3163 3164 3165 3165 3166 3167 3167 3168 3168 3169 3170 3170 3171 3172 3172 3173 3173 3174 3175 3175 3176 3177 3177 3177 3178 3178 3178 3179 3179 3179 3179 3180 3180 3180 3180 3180 3180 3180 3181 3181 3181 3180 3180 3180 3180 3180 3180 3179 3179 3179 3179 3179 3178 3178 3178 3177 3177 3177 3177 3177 3176 3176 3176 3175 3175 3174 3174 3173
3131 3131 3132 3133 3134 3135 3137 3139 3140 3140 3139 3140 3141 3142 3143 3144 3145 3147 3148 3149 3151 3152 3153 3154 3155 3156 3157 3157 3158 3159 3160 3161 3161 3162 3162 3163 3163 3164 3165 3165 3166 3167 3167 3168 3169 3169 3170 3171 3171 3172 3172 3173 3174 3174 3175 3176 3176 3177 3177 3177 3178 3178 3178 3178 3179 3179 3179 3179 3180 3180 3180 3180 3180 3180 3180 3180 3180 3180 3180 3179 3179 3179 3179 3179 3179 3178 3178 3178 3178 3177 3177 3177 3177 3177 3176 3176 3176 3175 3175 3174 3174 3173 3173
3129 3130 3130 3132 3132 3134 3136 3137 3138 3139 3138 3139 3140 3141 3142 3143 3144 3146 3147 3148 3150 3151 3152 3153 3154 3155 3156 3157 3157 3158 3159 3160 3160 3161 3161 3162 3162 3163 3164 3165 3165 3166 3167 3167 3168 3169 3169 3170 3171 3171 3172 3172 3173 3174 3175 3175 3176 3176 3177 3177 3177 3178 3178 3178 3178 3178 3179 3179 3179 3179 3179 3179 3180 3180 3180 3180 3180 3179 3179 3179 3179 3179 3179 3178 3178 3178 3178 3177 3177 3177 3177 3177 3176 3176 3176 3176 3175 3175 3174 3174 3174 3173 3172
3127 3128 3129 3131 3131 3131 3133 3136 3137 3137 3137 3138 3139 3140 3141 3142 3143 3144 3146 3147 3148 3150 3151 3152 3153 3154 3155 3156 3157 3157 3158 3159 3159 3160 3161 3161 3162 3162 3163 3164 3165 3165 3166 3167 3167 3168 3169 3169 3170 3171 3172 3172 3173 3173 3174 3175 3175 3176 3176 3177 3177 3177 3177 3177 3178 3178 3178 3178 3178 3179 3179 3179 3179 3179 3179 3179 3179 3179 3179 3179 3178 3178 3178 3178 3178 3178 3177 3177 3177 3177 3176 3176 3176 3176 3175 3175 3175 3174 3174 3174 3173 3172 3172
3125 3127 3127 3128 3129 3129 3130 3132 3134 3135 3136 3137 3138 3139 3140 3141 3142 3143 3145 3146 3147 3149 3150 3151 3152 3153 3154 3155 3156 3157 3157 3158 3159 3159 3160 3160 3161 3162 3162 3163 3164 3165 3165 3166 3167 3167 3168 3169 3170 3170 3171 3172 3172 3173 3174 3174 3175 3175 3176 3176 3176 3177 3177 3177 3177 3177 3178 3178 3178 3178 3178 3178 3178 3178 3178 3178 3178 3178 3178 3178 3178 3178 3178 3178 3177 3177 3177 3177 3177 3176 3176 3176 3175 3175 3175 3175 3174 3174 3174 3173 3173 3172 3172
3122 3124 3125 3126 3127 3127 3129 3129 3130 3132 3133 3135 3136 3137 3138 3140 3141 3142 3143 3145 3146 3148 3149 3150 3151 3152 3153 3154 3155 3156 3156 3157 3158 3158 3159 3159 3160 3161 3162 3162 3163 3164 3165 3166 3166 3167 3167 3168 3169 3170 3170 3171 3172 3172 3173 3173 3174 3174 3175 3175 3176 3176 3176 3177 3177 3177 3177 3177 3177 3177 3177 3178 3178 3178 3178 3178 3178 3177 3177 3177 3177 3177 3177 3177 3177 3177 3177 3176 3176 3176 3175 3175 3175 3175 3174 3174 3174 3173 3173 3173 3172 3172 3171
3119 3122 3123 3124 3124 3126 3127 3128 3128 3129 3131 3133 3134 3135 3137 3138 3140 3141 3142 3144 3145 3147 3148 3149 3150 3151 3152 3153 3154 3154 3155 3156 3157 3157 3158 3158 3159 3160 3161 3162 3162 3163 3164 3165 3165 3166 3167 3167 3168 3169 3170 3170 3171 3172 3172 3173 3173 3174 3174 3175 3175 3175 3176 3176 3176 3177 3177 3177 3177 3177 3177 3177 3177 3177 3177 3177 3177 3177 3177 3177 3177 3177 3177 3177 3176 3176 3176 3176 3176 3175 3175 3175 3175 3174 3174 3174 3173 3173 3172 3172 3172 3171 3171
3117 3119 3121 3122 3122 3123 3124 3125 3126 3127 3128 3131 3132 3134 3136 3137 3138 3139 3141 3142 3144 3145 3146 3147 3148 3149 3150 3151 3152 3153 3154 3155 3156 3156 3157 3157 3158 3159 3160 3161 3162 3162 3163 3164 3165 3165 3166 3167 3167 3168 3169 3170 3170 3171 3172 3172 3173 3173 3173 3174 3174 3175 3175 3175 3176 3176 3176 3177 3177 3177 3177 3177 3177 3177 3177 3177 3176 3176 3176 3176 3176 3176 3176 3176 3176 3175 3175 3175 3175 3175 3174 3174 3174 3174 3173 3173 3173 3172 3172 3172 3171 3171 3170
3116 3117 3118 3119 3121 3122 3122 3123 3124 3125 3127 3128 3130 3132 3134 3135 3136 3138 3139 3141 3142 3143 3144 3145 3147 3147 3148 3149 3150 3152 3152 3153 3154 3155 3156 3157 3157 3158 3159 3160 3161 3161 3162 3163 3164 3165 3165 3166 3167 3167 3168 3169 3170 3170 3171 3172 3172 3172 3173 3173 3174 3174 3174 3175 3175 3175 3176 3176 3176 3176 3176 3176 3176 3176 3176 3176 3176 3176 3175 3175 3175 3175 3175 3175 3175 3175 3174 3174 3174 3174 3174 3173 3173 3173 3173 3172 3172 3172 3172 3171 3171 3170 3170
3113 3115 3116 3117 3119 3121 3121 3121 3122 3123 3125 3126 3128 3130 3132 3133 3134 3136 3137 3139 3140 3141 3142 3144 3145 3146 3147 3148 3149 3150 3151 3152 3153 3154 3155 3156 3156 3157 3158 3159 3160 3160 3161 3162 3163 3164 3165 3165 3166 3167 3167 3168 3169 3170 3170 3171 3171 3172 3172 3173 3173 3173 3174 3174 3175 3175 3175 3175 3176 3176 3176 3176 3176 3176 3176 3176 3176 3175 3175 3175 3175 3175 3174 3174 3174 3174 3174 3173 3173 3173 3173 3173 3172 3172 3172 3172 3172 3171 3171 3170 3170 3169 3169
3110 3112 3114 3115 3117 3118 3119 3119 3120 3122 3123 3124 3126 3127 3129 3131 3132 3134 3135 3137 3138 3139 3141 3142 3143 3144 3145 3146 3147 3149 3150 3151 3152 3153 3154 3154 3155 3156 3157 3158 3158 3159 3160 3161 3162 3163 3164 3165 3165 3166 3167 3167 3168 3169 3169 3170 3171 3171 3172 3172 3172 3173 3173 3174 3174 3174 3175 3175 3175 3175 3175 3175 3175 3175 3175 3175 3175 3175 3175 3174 3174 3174 3174 3174 3173 3173 3173 3172 3172 3172 3172 3172 3172 3172 3171 3171 3171 3170 3170 3169 3169 3168 3168
3107 3109 3112 3113 3114 3116 3117 3117 3118 3119 3121 3122 3123 3125 3127 3128 3130 3131 3133 3134 3136 3137 3139 3140 3142 3143 3144 3145 3146 3148 3149 3150 3151 3152 3153 3154 3154 3155 3156 3157 3157 3158 3159 3160 3161 3162 3163 3164 3164 3165 3166 3167 3167 3168 3169 3169 3170 3170 3171 3171 3172 3172 3172 3173 3173 3174 3174 3174 3174 3174 3175 3175 3175 3175 3175 3175 3175 3174 3174 3174 3174 3173 3173 3173 3173 3172 3172 3172 3172 3172 3171 3171 3171 3171 3170 3170 3170 3169 3169 3168 3168 3168 3167
3104 3106 3109 3111 3112 3113 3115 3116 3116 3117 3118 3119 3121 3123 3125 3126 3127 3128 3130 3132 3133 3135 3137 3138 3140 3141 3142 3143 3145 3146 3147 3149 3150 3151 3152 3153 3154 3155 3155 3156 3157 3157 3158 3159 3160 3161 3162 3163 3164 3164 3165 3166 3166 3167 3168 3168 3169 3170 3170 3171 3171 3172 3172 3172 3173 3173 3173 3173 3174 3174 3174 3174 3174 3174 3174 3174 3174 3174 3173 3173 3173 3173 3173 3172 3172 3172 3171 3171 3171 3171 3170 3170 3170 3169 3169 3169 3169 3168 3168 3168 3167 3167 3167
3102 3103 3106 3108 3110 3111 3112 3114 3115 3115 3116 3117 3119 3121 3122 3124 3125 3127 3128 3129 3131 3133 3135 3137 3138 3139 3140 3142 3143 3145 3146 3147 3148 3150 3151 3152 3152 3153 3154 3155 3156 3157 3157 3158 3159 3160 3161 3162 3163 3163 3164 3165 3166 3166 3167 3168 3168 3169 3169 3170 3170 3171 3171 3172 3172 3172 3172 3173 3173 3173 3173 3173 3173 3173 3173 3173 3173 3173 3173 3173 3172 3172 3172 3172 3171 3171 3170 3170 3170 3170 3169 3169 3169 3168 3168 3168 3168 3168 3167 3167 3167 3166 3166
3100 3101 3102 3105 3107 3109 3111 3112 3113 3114 3115 3116 3117 3119 3120 3122 3124 3127 3127 3127 3129 3130 3132 3134 3136 3137 3139 3140 3142 3143 3145 3146 3147 3148 3149 3150 3152 3152 3153 3154 3154 3155 3156 3157 3158 3159 3160 3161 3162 3162 3163 3164 3165 3165 3166 3167 3167 3168 3168 3169 3169 3170 3170 3171 3171 3171 3172 3172 3172 3172 3172 3172 3172 3172 3172 3172 3172 3172 3172 3172 3172 3172 3171 3171 3170 3170 3170 3169 3169 3169 3168 3168 3168 3168 3167 3167 3167 3167 3167 3166 3166 3166 3165
3099 3099 3099 3101 3103 3106 3109 3111 3112 3112 3114 3114 3115 3117 3118 3120 3122 3125 3125 3126 3127 3128 3130 3132 3134 3136 3138 3139 3141 3142 3143 3144 3146 3147 3148 3149 3150 3151 3152 3152 3153 3154 3155 3156 3157 3158 3159 3160 3161 3161 3162 3163 3164 3165 3165 3166 3167 3167 3168 3168 3169 3169 3169 3170 3170 3170 3171 3171 3171 3171 3171 3172 3172 3172 3172 3172 3172 3171 3171 3171 3171 3171 3171 3170 3170 3169 3169 3168 3168 3168 3168 3168 3168 3167 3167 3167 3167 3167 3166 3166 3166 3165 3164
3097 3097 3096 3097 3099 3102 3106 3108 3109 3111 3112 3112 3113 3115 3116 3118 3120 3122 3123 3124 3124 3126 3128 3130 3132 3134 3136 3137 3139 3140 3142 3143 3144 3146 3147 3148 3149 3150 3151 3151 3152 3153 3154 3155 3156 3157 3157 3158 3159 3160 3161 3162 3163 3164 3164 3165 3166 3166 3167 3167 3167 3168 3168 3169 3169 3169 3170 3170 3170 3170 3170 3170 3171 3171 3171 3171 3171 3171 3170 3170 3170 3170 3169 3169 3169 3168 3168 3168 3167 3167 3167 3167 3167 3167 3167 3167 3167 3166 3166 3165 3165 3164 3164
3093 3094 3093 3094 3095 3098 3102 3104 3106 3108 3110 3111 3111 3112 3114 3116 3117 3119 3121 3122 3122 3124 3126 3128 3131 3132 3134 3136 3137 3139 3141 3142 3143 3145 3146 3147 3148 3148 3149 3150 3151 3152 3153 3154 3155 3155 3156 3157 3158 3159 3160 3161 3162 3162 3163 3164 3165 3165 3166 3166 3167 3167 3167 3168 3168 3168 3169 3169 3169 3169 3169 3169 3170 3170 3170 3170 3170 3170 3170 3169 3169 3169 3169 3168 3168 3167 3167 3167 3167 3167 3167 3167 3166 3166 3166 3166 3166 3166 3165 3165 3165 3164 3163
3090 3092 3090 3091 3093 3096 3100 3102 3102 3104 3107 3108 3108 3109 3112 3113 3115 3117 3119 3120 3120 3122 3124 3126 3128 3131 3132 3134 3136 3138 3139 3141 3142 3143 3145 3146 3147 3147 3148 3149 3149 3150 3152 3152 3153 3154 3155 3156 3157 3157 3159 3160 3161 3161 3162 3163 3163 3164 3164 3165 3166 3166 3166 3167 3167 3167 3167 3168 3168 3168 3168 3168 3168 3168 3169 3169 3169 3169 3169 3169 3168 3168 3168 3167 3167 3167 3167 3166 3166 3166 3166 3166 3166 3166 3166 3166 3166 3166 3165 3165 3164 3163 3162
3088 3091 3090 3089 3091 3094 3097 3099 3100 3100 3103 3105 3106 3107 3108 3110 3112 3114 3116 3118 3118 3120 3122 3124 3127 3128 3130 3132 3134 3136 3138 3139 3141 3142 3143 3144 3145 3146 3146 3147 3148 3149 3150 3151 3152 3152 3153 3154 3155 3157 3157 3158 3159 3160 3161 3162 3162 3163 3163 3164 3164 3165 3165 3166 3166 3166 3167 3167 3167 3167 3167 3167 3167 3167 3168 3168 3168 3168 3168 3168 3168 3167 3167 3167 3167 3166 3166 3166 3165 3165 3165 3165 3165 3165 3165 3165 3164 3164 3164 3163 3162 3162 3161
3085 3088 3091 3089 3089 3092 3095 3097 3097 3098 3099 3102 3103 3104 3105 3107 3110 3112 3114 3116 3117 3118 3120 3122 3124 3126 3128 3130 3132 3133 3135 3137 3138 3140 3141 3142 3143 3144 3144 3145 3146 3147 3148 3149 3150 3151 3152 3153 3154 3155 3156 3157 3158 3159 3160 3160 3161 3162 3162 3163 3163 3164 3164 3165 3165 3165 3165 3166 3166 3166 3166 3166 3167 3167 3167 3167 3167 3167 3167 3167 3167 3167 3167 3166 3166 3165 3165 3165 3165 3164 3164 3164 3164 3164 3164 3163 3163 3163 3162 3162 3161 3161 3160
3082 3084 3088 3089 3088 3088 3091 3094 3095 3096 3097 3098 3100 3101 3102 3106 3109 3111 3113 3115 3116 3117 3119 3121 3122 3124 3126 3127 3129 3131 3132 3134 3136 3137 3139 3140 3141 3141 3142 3143 3144 3145 3146 3147 3148 3149 3150 3152 3153 3154 3155 3156 3157 3157 3158 3159 3160 3161 3161 3162 3162 3163 3163 3163 3164 3164 3164 3165 3165 3165 3165 3165 3165 3166 3166 3166 3166 3166 3166 3166 3166 3166 3166 3165 3165 3164 3164 3164 3164 3163 3163 3163 3163 3163 3162 3162 3162 3162 3161 3161 3160 3160 3159
3078 3080 3083 3087 3087 3086 3087 3090 3092 3094 3094 3095 3097 3098 3099 3104 3107 3109 3111 3113 3114 3115 3116 3118 3120 3122 3123 3125 3127 3129 3130 3132 3133 3135 3136 3137 3138 3138 3140 3141 3142 3143 3144 3145 3146 3147 3149 3150 3151 3152 3153 3154 3155 3156 3157 3158 3159 3159 3160 3161 3161 3162 3162 3162 3162 3163 3163 3163 3164 3164 3164 3164 3164 3165 3165 3165 3165 3165 3165 3165 3165 3165 3165 3164 3163 3163 3163 3163 3162 3162 3162 3162 3162 3162 3162 3161 3161 3161 3160 3160 3159 3159 3159
3075 3077 3079 3082 3085 3084 3083 3086 3089 3091 3092 3092 3094 3096 3097 3101 3104 3106 3108 3110 3111 3112 3113 3115 3117 3119 3121 3123 3125 3127 3128 3130 3131 3132 3133 3134 3135 3137 3138 3139 3140 3141 3142 3143 3144 3145 3147 3148 3149 3150 3152 3153 3154 3155 3156 3157 3157 3158 3159 3159 3160 3160 3161 3161 3162 3162 3162 3162 3163 3163 3163 3163 3163 3164 3164 3164 3164 3164 3164 3164 3164 3164 3163 3163 3162 3162 3162 3162 3162 3162 3161 3161 3161 3161 3160 3160 3160 3160 3159 3159 3159 3158 3158
3072 3073 3075 3078 3081 3082 3081 3082 3084 3087 3089 3090 3092 3093 3095 3097 3100 3102 3104 3106 3107 3109 3110 3112 3114 3117 3119 3121 3123 3126 3127 3128 3129 3130 3131 3132 3134 3136 3137 3138 3138 3139 3140 3141 3142 3143 3144 3146 3147 3148 3150 3151 3152 3153 3154 3155 3156 3157 3157 3158 3159 3159 3160 3160 3160 3161 3161 3161 3162 3162 3162 3162 3162 3162 3163 3163 3163 3163 3163 3163 3163 3163 3162 3162 3161 3161 3161 3161 3161 3160 3160 3160 3160 3159 3159 3159 3159 3159 3158 3158 3157 3157 3157
3068 3070 3072 3075 3078 3079 3080 3079 3080 3083 3086 3087 3088 3089 3091 3093 3096 3099 3101 3103 3104 3106 3108 3110 3112 3114 3116 3118 3121 3122 3124 3126 3127 3128 3130 3132 3133 3134 3135 3135 3136 3136 3137 3139 3140 3141 3142 3144 3145 3147 3148 3150 3151 3152 3153 3154 3155 3156 3156 3157 3157 3158 3158 3159 3159 3159 3160 3160 3161 3161 3161 3161 3161 3161 3162 3162 3162 3162 3162 3162 3162 3162 3161 3161 3160 3160 3160 3160 3159 3159 3159 3159 3158 3158 3158 3158 3158 3157 3157 3157 3157 3156 3156
3064 3067 3069 3072 3074 3077 3078 3077 3077 3079 3082 3083 3085 3086 3088 3090 3092 3095 3097 3100 3102 3103 3105 3107 3110 3112 3114 3115 3117 3119 3121 3123 3125 3127 3128 3130 3130 3131 3131 3131 3132 3134 3136 3137 3138 3139 3140 3142 3144 3146 3147 3148 3150 3151 3152 3153 3154 3154 3155 3156 3156 3157 3157 3157 3158 3158 3159 3159 3159 3159 3160 3160 3160 3160 3160 3160 3160 3160 3160 3160 3160 3160 3160 3159 3159 3159 3159 3158 3158 3158 3158 3157 3157 3157 3157 3157 3157 3156 3156 3156 3155 3155 3154
3061 3063 3066 3068 3071 3073 3075 3074 3075 3077 3078 3080 3082 3083 3085 3087 3089 3091 3094 3096 3099 3101 3103 3105 3107 3109 3111 3113 3115 3117 3118 3120 3122 3124 3126 3127 3127 3128 3128 3129 3131 3132 3134 3135 3136 3137 3139 3142 3144 3145 3146 3147 3148 3149 3150 3152 3152 3153 3154 3155 3155 3156 3156 3156 3157 3157 3157 3158 3158 3158 3158 3158 3158 3158 3159 3159 3159 3159 3159 3159 3159 3159 3159 3158 3158 3158 3157 3157 3157 3157 3157 3156 3156 3156 3156 3156 3156 3155 3155 3155 3154 3153 3153
3057 3060 3062 3065 3067 3069 3071 3072 3072 3074 3075 3077 3079 3080 3082 3084 3086 3088 3091 3094 3096 3099 3101 3102 3104 3107 3109 3111 3113 3115 3117 3118 3120 3121 3123 3124 3126 3127 3128 3129 3130 3131 3131 3132 3134 3136 3140 3142 3143 3144 3145 3146 3147 3148 3149 3150 3151 3152 3152 3153 3154 3154 3155 3155 3156 3156 3156 3156 3156 3157 3157 3157 3157 3157 3157 3157 3157 3157 3158 3158 3158 3157 3157 3157 3157 3157 3156 3156 3156 3156 3156 3155 3155 3155 3155 3155 3154 3154 3154 3153 3153 3152 3152
3054 3057 3058 3061 3063 3065 3067 3068 3070 3071 3073 3074 3076 3077 3079 3081 3083 3086 3089 3091 3093 3096 3098 3100 3102 3105 3107 3109 3112 3113 3115 3116 3117 3119 3121 3122 3124 3125 3127 3127 3128 3129 3130 3132 3134 3137 3139 3141 3142 3142 3143 3144 3146 3147 3148 3149 3149 3150 3151 3152 3152 3153 3153 3154 3154 3154 3155 3155 3155 3155 3155 3155 3155 3156 3156 3156 3156 3156 3157 3157 3156 3156 3156 3156 3155 3155 3155 3155 3155 3155 3154 3154 3154 3154 3153 3153 3153 3153 3152 3152 3152 3151 3151
3050 3053 3055 3057 3059 3061 3063 3065 3067 3068 3070 3071 3072 3074 3076 3078 3081 3084 3086 3088 3090 3093 3096 3098 3100 3103 3105 3108 3110 3112 3113 3114 3115 3117 3118 3120 3122 3123 3124 3126 3128 3130 3132 3133 3136 3138 3139 3140 3140 3141 3142 3143 3144 3145 3146 3147 3148 3148 3149 3150 3150 3151 3152 3152 3152 3153 3153 3153 3153 3153 3153 3154 3154 3154 3155 3155 3155 3155 3155 3155 3155 3155 3154 3154 3154 3154 3154 3154 3153 3153 3153 3153 3153 3152 3152 3152 3152 3152 3151 3151 3151 3150 3149
3046 3049 3052 3053 3055 3057 3060 3062 3064 3065 3067 3068 3070 3072 3073 3076 3078 3081 3083 3085 3088 3091 3093 3095 3098 3100 3103 3105 3107 3109 3111 3112 3113 3115 3116 3118 3119 3120 3122 3124 3126 3128 3130 3132 3134 3136 3137 3138 3139 3140 3141 3142 3142 3143 3145 3145 3146 3147 3147 3148 3149 3149 3150 3150 3151 3151 3151 3151 3152 3152 3152 3152 3153 3153 3153 3153 3153 3153 3153 3153 3153 3153 3153 3152 3152 3152 3152 3152 3152 3152 3152 3152 3151 3151 3151 3151 3151 3150 3150 3150 3149 3149 3148
3042 3045 3049 3050 3052 3054 3056 3058 3061 3062 3064 3065 3067 3068 3070 3072 3076 3079 3082 3083 3085 3088 3091 3093 3095 3098 3101 3102 3104 3106 3107 3110 3111 3113 3114 3115 3116 3117 3120 3122 3123 3125 3127 3129 3131 3133 3134 3136 3137 3138 3139 3140 3141 3142 3143 3144 3144 3145 3146 3147 3147 3148 3148 3149 3149 3149 3149 3149 3150 3150 3151 3151 3152 3152 3151 3151 3151 3152 3152 3152 3152 3152 3152 3151 3151 3151 3151 3151 3151 3150 3150 3150 3150 3150 3150 3150 3150 3149 3149 3148 3148 3147 3147
3039 3042 3044 3046 3048 3050 3053 3055 3057 3059 3061 3062 3064 3066 3068 3070 3073 3076 3079 3080 3082 3084 3088 3091 3093 3096 3098 3100 3102 3103 3105 3107 3109 3110 3112 3113 3114 3116 3118 3120 3122 3123 3125 3127 3128 3130 3132 3133 3134 3136 3137 3138 3139 3140 3141 3142 3143 3144 3144 3145 3145 3146 3147 3147 3147 3147 3147 3147 3148 3149 3149 3150 3150 3150 3150 3150 3150 3150 3150 3150 3150 3150 3150 3150 3150 3149 3149 3149 3149 3149 3149 3148 3148 3149 3149 3148 3148 3148 3147 3147 3147 3146 3146